Flag for USA

Past Weather in 61°13'25"N, 149°50'24"W, USA — Yesterday and Last 2 Weeks

Now
23 °F

Sunny.


Feels Like: 17 °F
Forecast: 35 / 21 °F
Wind: 5 mph from North

Location: Lake Hood Seaplane

Current Time: Apr 8, 2020 at 10:59:56 am

Latest Report: Apr 8, 2020 at 9:53 am


Visibility: 10 mi

Pressure: 29.70 "Hg

Humidity: 46%

Dew Point: 5 °F

Location of 61°13'25"N, 149°50'24"WLocation

Past Weather in 61°13'25"N, 149°50'24"W — Graph

°F

61°13'25"N, 149°50'24"W Temperature Yesterday

Maximum temperature yesterday: 33 °F (at 5:53 pm)
Minimum temperature yesterday: 15 °F (at 6:53 am)
Average temperature yesterday: 26 °F

High & Low Weather Summary for the Past Weeks

 TemperatureHumidityPressure
High43 °F (Mar 25, 3:53 pm)96% (Apr 2, 9:02 pm)30.41 "Hg (Apr 2, 9:02 pm)
Low11 °F (Mar 29, 7:53 am)27% (Mar 30, 12:53 am)29.50 "Hg (Mar 28, 5:53 pm)
Average29 °F63%29.97 "Hg
* Reported Mar 24 9:53 am — Apr 8 9:53 am, 61°13'25"N, 149°50'24"W. Weather by CustomWeather, © 2020

Note: Actual official high and low records may vary slightly from our data, if they occured in-between our weather recording intervals... More about our weather records

61°13'25"N, 149°50'24"W Weather History for the Previous 24 Hours

Scroll right to see more
 ConditionsComfort  
Time TempWeatherWind HumidityBarometerVisibility
9:53 am
Wed, Apr 8
23 °FSunny.5 mph46%29.70 "Hg10 mi
8:53 am23 °FScattered clouds.9 mph48%29.68 "Hg10 mi
7:53 am22 °FOvercast.10 mph50%29.66 "Hg10 mi
6:53 am22 °FOvercast.15 mph50%29.65 "Hg10 mi
5:53 am22 °FOvercast.18 mph52%29.65 "Hg10 mi
4:53 am22 °FOvercast.15 mph50%29.68 "Hg10 mi
3:53 am22 °FOvercast.20 mph50%29.71 "Hg10 mi
2:53 am22 °FOvercast.14 mph52%29.73 "Hg10 mi
1:53 am23 °FOvercast.20 mph53%29.76 "Hg10 mi
12:53 am24 °FOvercast.15 mph52%29.80 "Hg10 mi
11:53 pm
Tue, Apr 7
25 °FOvercast.15 mph53%29.83 "Hg10 mi
10:53 pm27 °FOvercast.14 mph49%29.87 "Hg10 mi
9:53 pm28 °FPassing clouds.10 mph51%29.89 "Hg10 mi
8:53 pm29 °FPassing clouds.8 mph49%29.91 "Hg10 mi
7:53 pm31 °FOvercast.8 mph45%29.94 "Hg10 mi
6:53 pm32 °FPassing clouds.7 mph47%29.98 "Hg10 mi
5:53 pm33 °FSunny.No wind38%30.00 "Hg10 mi
4:53 pm32 °FSunny.9 mph47%30.02 "Hg10 mi
3:53 pm32 °FSunny.14 mph45%30.05 "Hg10 mi
2:53 pm31 °FSunny.14 mph47%30.07 "Hg10 mi
1:53 pm29 °FSunny.12 mph51%30.09 "Hg10 mi
12:53 pm28 °FSunny.15 mph51%30.11 "Hg10 mi
11:53 am27 °FSunny.9 mph45%30.12 "Hg10 mi
10:53 am25 °FSunny.6 mph53%30.14 "Hg10 mi
Weather by CustomWeather, © 2020

See weather overview

Advertising